Phuket, Thailand

2:48 PM +07 on April 28, 2017 (GMT +0700)
Phuket International

Weather History for VTSP - February, 2014

Change the Weather History Date:

Thursday, February 6, 2014

  Actual Average Record
Temperature  
Mean Temperature 82 °F -  
Max Temperature 90 °F 91 °F 100 °F (1998)
Min Temperature 73 °F 75 °F 68 °F (2000)
Cooling Degree Days 16    
Growing Degree Days 32 (Base 50)    
Moisture  
Dew Point 70 °F    
Average Humidity 70    
Maximum Humidity 94    
Minimum Humidity 40    
Precipitation  
Precipitation 0.00 in 0.05 in - ()
Sea Level Pressure  
Sea Level Pressure 29.77 in    
Wind  
Wind Speed 3 mph ()    
Max Wind Speed 13 mph    
Max Gust Speed -    
Visibility 5.3 miles    
Events      
Averages and records for this station are not official NWS values.
T = Trace of Precipitation, MM = Missing Value Source: Averaged Metar Reports

Daily Weather History Graph

Daily Weather History Graph

Search for Another Location

Airport or City:

Trip Planner

Search our weather history database for the weather conditions in past years. The results will help you decide how hot, cold, wet, or windy it might be!

Date:

Astronomy

Feb. 06, 2014 Rise Set
Actual Time 6:46 AM +07 6:35 PM +07
Civil Twilight 6:24 AM +07 6:56 PM +07
Nautical Twilight 5:59 AM +07 7:21 PM +07
Astronomical Twilight 5:34 AM +07 7:46 PM +07
Moon 11:45 AM +07 (2/6) No Moon Set
Length of Visible Light 12h 32m
Length of Day
11h 48m
Waxing Crescent, 44% of the Moon is Illuminated
Feb 6
Waxing Crescent
Feb 7
First Quarter
Feb 15
Full
Feb 23
Last Quarter
Mar 1
New

Hourly Weather History & Observations

Time (+07) Temp. Heat Index Dew Point Humidity Pressure Visibility Wind Dir Wind Speed Gust Speed Precip Events Conditions
12:00 AM 75.2 °F - 71.6 °F 89% 29.80 in 6.2 mi Calm Calm - N/A   Scattered Clouds
12:30 AM 75.2 °F - 71.6 °F 89% 29.80 in 6.2 mi Calm Calm - N/A   Scattered Clouds
1:00 AM 77 °F - 73 °F 84% 29.75 in 6 mi Calm Calm - -   Scattered Clouds
1:00 AM 75.2 °F - 71.6 °F 89% 29.77 in 6.2 mi Calm Calm - N/A   Scattered Clouds
1:30 AM 75.2 °F - 71.6 °F 89% 29.77 in 6.2 mi Calm Calm - N/A   Scattered Clouds
2:00 AM 75.2 °F - 71.6 °F 89% 29.77 in 6.2 mi Calm Calm - N/A   Scattered Clouds
2:30 AM 73.4 °F - 69.8 °F 88% 29.77 in 6.2 mi Calm Calm - N/A   Scattered Clouds
3:00 AM 73.4 °F - 71.6 °F 94% 29.77 in - Calm Calm - N/A   Scattered Clouds
4:00 AM 75 °F - 73 °F 90% 29.73 in 6 mi Calm Calm - -   Scattered Clouds
4:00 AM 73.4 °F - 69.8 °F 88% 29.77 in 6.2 mi Calm Calm - N/A   Scattered Clouds
4:30 AM 73.4 °F - 69.8 °F 88% 29.77 in 6.2 mi Calm Calm - N/A   Scattered Clouds
5:00 AM 73.4 °F - 69.8 °F 88% 29.77 in 6.2 mi Calm Calm - N/A   Scattered Clouds
6:00 AM 73.4 °F - 69.8 °F 88% 29.77 in 6.2 mi ESE 5.8 mph - N/A   Scattered Clouds
6:30 AM 73.4 °F - 69.8 °F 88% 29.77 in 6.2 mi East 5.8 mph - N/A   Scattered Clouds
7:00 AM 74 °F - 68 °F 77% 29.77 in 6 mi Calm Calm - -   Scattered Clouds
7:00 AM 73.4 °F - 69.8 °F 88% 29.77 in 6.2 mi ENE 5.8 mph - N/A   Mostly Cloudy
7:30 AM 75.2 °F - 69.8 °F 83% 29.80 in 6.2 mi NE 5.8 mph - N/A   Mostly Cloudy
8:00 AM 77.0 °F - 69.8 °F 78% 29.80 in 6.2 mi Calm Calm - N/A   Mostly Cloudy
8:30 AM 78.8 °F - 71.6 °F 78% 29.83 in 5.0 mi Calm Calm - N/A   Scattered Clouds
9:00 AM 80.6 °F 84.6 °F 71.6 °F 74% 29.83 in 5.0 mi East 5.8 mph - N/A   Scattered Clouds
9:30 AM 80.6 °F 83.9 °F 69.8 °F 70% 29.83 in 5.0 mi ENE 4.6 mph - N/A   Scattered Clouds
10:00 AM 84 °F - 71 °F 56% 29.81 in 6 mi ESE 2.3 mph - -   Haze
10:00 AM 84.2 °F 87.3 °F 68.0 °F 58% 29.83 in 5.0 mi East 10.4 mph - N/A   Scattered Clouds
10:30 AM 84.2 °F 87.3 °F 68.0 °F 58% 29.83 in 5.0 mi ENE 6.9 mph - N/A   Scattered Clouds
11:00 AM 86.0 °F 88.2 °F 66.2 °F 51% 29.83 in 5.0 mi ESE 6.9 mph - N/A   Scattered Clouds
11:30 AM 86.0 °F 87.3 °F 64.4 °F 48% 29.80 in 5.0 mi East 4.6 mph - N/A   Scattered Clouds
12:00 PM 87.8 °F 90.4 °F 66.2 °F 49% 29.80 in 5.6 mi ESE 8.1 mph - N/A   Scattered Clouds
12:30 PM 87.8 °F 90.4 °F 66.2 °F 49% 29.77 in 5.6 mi Calm Calm - N/A   Scattered Clouds
1:00 PM 90 °F - 69 °F 40% 29.76 in 6 mi West 3.5 mph - -   Haze
1:00 PM 86.0 °F 89.4 °F 68.0 °F 55% 29.77 in 5.6 mi WSW 8.1 mph - N/A   Scattered Clouds
1:30 PM 87.8 °F 90.4 °F 66.2 °F 49% 29.77 in 5.6 mi East 5.8 mph - N/A   Scattered Clouds
2:00 PM 87.8 °F 91.4 °F 68.0 °F 52% 29.74 in 5.6 mi West 11.5 mph - N/A   Scattered Clouds
2:30 PM 86.0 °F 89.4 °F 68.0 °F 55% 29.74 in 5.0 mi WSW 10.4 mph - N/A   Scattered Clouds
3:00 PM 86.0 °F 90.4 °F 69.8 °F 58% 29.74 in 5.0 mi West 11.5 mph - N/A   Scattered Clouds
3:30 PM 86.0 °F 89.4 °F 68.0 °F 55% 29.71 in 5.0 mi West 11.5 mph - N/A   Scattered Clouds
4:00 PM 88 °F - 70 °F 45% 29.70 in 6 mi WNW 3.5 mph - -   Haze
4:00 PM 86.0 °F 89.4 °F 68.0 °F 55% 29.71 in 5.0 mi WNW 10.4 mph - N/A   Scattered Clouds
4:30 PM 84.2 °F 87.3 °F 68.0 °F 58% 29.71 in 5.0 mi West 12.7 mph - N/A   Scattered Clouds
5:00 PM 84.2 °F 87.3 °F 68.0 °F 58% 29.71 in 5.0 mi West 11.5 mph - N/A   Scattered Clouds
5:30 PM 84.2 °F 87.3 °F 68.0 °F 58% 29.74 in 5.0 mi West 12.7 mph - N/A   Scattered Clouds
6:00 PM 82.4 °F 85.4 °F 68.0 °F 62% 29.74 in 4.3 mi West 4.6 mph - N/A   Mostly Cloudy
6:30 PM 82.4 °F 85.4 °F 68.0 °F 62% 29.74 in 5.0 mi West 9.2 mph - N/A   Mostly Cloudy
7:00 PM 83 °F - 71 °F 58% 29.72 in 5 mi Calm Calm - -   Mist
7:00 PM 80.6 °F 83.9 °F 69.8 °F 70% 29.74 in 4.3 mi WNW 8.1 mph - N/A   Mostly Cloudy
7:30 PM 80.6 °F 84.6 °F 71.6 °F 74% 29.74 in 4.3 mi West 6.9 mph - N/A   Mostly Cloudy
8:00 PM 80.6 °F 84.6 °F 71.6 °F 74% 29.77 in 4.3 mi East 8.1 mph - N/A   Mostly Cloudy
8:30 PM 80.6 °F 84.6 °F 71.6 °F 74% 29.77 in 4.3 mi West 8.1 mph - N/A   Mostly Cloudy
9:00 PM 80.6 °F 84.6 °F 71.6 °F 74% 29.80 in 4.3 mi NW 5.8 mph - N/A   Mostly Cloudy
9:30 PM 78.8 °F - 71.6 °F 78% 29.80 in 4.3 mi Variable 3.5 mph - N/A   Mostly Cloudy
10:00 PM 82 °F - 69 °F 58% 29.75 in 5 mi Calm Calm - -   Mist
10:00 PM 77.0 °F - 71.6 °F 83% 29.80 in 4.3 mi Calm Calm - N/A   Mostly Cloudy
10:30 PM 78.8 °F - 71.6 °F 78% 29.80 in 4.3 mi WNW 3.5 mph - N/A   Mostly Cloudy
11:00 PM 80.6 °F 84.6 °F 71.6 °F 74% 29.80 in 4.3 mi WNW 6.9 mph - N/A   Mostly Cloudy
11:30 PM 80.6 °F 84.6 °F 71.6 °F 74% 29.80 in 4.3 mi NW 8.1 mph - N/A   Mostly Cloudy